カタログに戻る

STARLINK-35006

運用中通信SSO
NORAD 65284·PAYLOAD·🇺🇸 United States

打ち上げ Aug 22, 2025 から Vandenberg Space Force Base

Loading…

次のパス (今後24時間)

TLE

最新Source: CelesTrak SupGP

元期: Sep 14, 2026, 22:37 UTC

1 65284C 25184M   26257.94284722 -.00081604  00000+0 -25305-2 0  2579
2 65284  97.2833 305.9491 0001008  90.8616 128.2067 15.33514808    14

AllMySatでSTARLINK-35006をリアルタイム追跡

Download on the App Store